Stations météo

réclame
Mon MeteoGroup
Fehmarn, Allemagne (10055): Température de l'air & dewpoint: 11.01.2018 08:00:00 - 17.01.2018 08:00:00 (CET)Fehmarn, Allemagne (10055): Température de l'air 5cm & Température de l'air -5cm: 11.01.2018 08:00:00 - 17.01.2018 08:00:00 (CET)Fehmarn, Allemagne (10055): Température de l'air -20cm & Température de l'air -100cm: 11.01.2018 08:00:00 - 17.01.2018 08:00:00 (CET)Fehmarn, Allemagne (10055): Vitesse du vent & gusts: 11.01.2018 08:00:00 - 17.01.2018 08:00:00 (CET)Fehmarn, Allemagne (10055): Direction du vent: 11.01.2018 08:00:00 - 17.01.2018 08:00:00 (CET)Fehmarn, Allemagne (10055): reduced air pressure: 11.01.2018 08:00:00 - 17.01.2018 08:00:00 (CET)Fehmarn, Allemagne (10055): visibility: 11.01.2018 08:00:00 - 17.01.2018 08:00:00 (CET)Fehmarn, Allemagne (10055): Ensoleillement: 11.01.2018 08:00:00 - 17.01.2018 08:00:00 (CET)Fehmarn, Allemagne (10055): Quantités de précipitations: 11.01.2018 08:00:00 - 17.01.2018 08:00:00 (CET)
Date & Time tt [°C] td [°C] tt 5cm [°C] tt -5cm [°C] tt -20cm [°C] tt -100cm [°C] ff [km/h] ff [knt] fx [km/h] fx [knt] dd ppp [hPa] vv [km] sd [min] rr [mm]
17.01.2018 08:00:00 2,1 0,6 1,8 1,1 1,6 4,7 34 18 42 23 WSW 987,5 19 0 0,0
17.01.2018 07:00:00 2,2 0,2 1,9 1,0 1,6 4,7 30 16 49 26 WSW 986,7 23 0 0,0
17.01.2018 06:00:00 2,2 0,5 1,7 0,9 1,6 4,8 33 18 49 26 WSW 986,4 23 0 0,0
17.01.2018 05:00:00 2,1 0,5 1,7 0,8 1,6 4,8 35 19 47 25 WSW 986,4 22 0 0,0
17.01.2018 04:00:00 1,9 0,8 1,3 0,6 1,6 4,8 29 16 41 22 WSW 986,6 27 0 0,0
17.01.2018 03:00:00 1,8 0,6 0,8 0,8 1,6 4,8 26 14 49 26 SW 986,5 25 0 0,0
17.01.2018 02:00:00 2,2 0,5 1,4 0,9 1,7 4,8 38 20 51 27 WSW 986,7 24 0 0,0
17.01.2018 01:00:00 2,2 0,9 1,6 0,8 1,7 4,8 34 18 50 27 WSW 986,8 24 0 0,0
17.01.2018 00:00:00 2,2 1,0 1,5 0,8 1,7 4,8 40 22 52 28 WSW 986,7 57 0 0,0
16.01.2018 23:00:00 2,5 1,1 2,1 0,9 1,8 4,8 35 19 48 26 WSW 986,9 26 0 0,0
16.01.2018 22:00:00 2,2 1,0 1,0 0,6 1,8 4,8 31 17 50 27 WSW 986,7 23 0 0,0
16.01.2018 21:00:00 2,1 1,0 1,0 0,8 1,9 4,8 32 18 46 25 WSW 986,4 27 0 0,0
16.01.2018 20:00:00 2,2 1,0 1,1 1,2 2,0 4,8 31 17 45 24 WSW 986,3 46 0 0,0
16.01.2018 19:00:00 2,3 1,0 1,5 1,5 2,0 4,8 37 20 51 28 WSW 986,1 36 0 0,0
16.01.2018 18:00:00 2,9 1,5 2,3 1,7 2,1 4,8 35 19 48 26 WSW 985,8 59 0 0,0
16.01.2018 17:00:00 3,3 1,5 2,4 1,9 2,1 4,8 34 18 42 23 W 985,7 66 0 0,0
16.01.2018 16:00:00 3,7 2,2 3,1 2,2 2,0 4,8 21 11 35 19 SW 985,1 34 0 0,0
16.01.2018 15:00:00 3,7 1,8 2,8 2,8 1,9 4,8 26 14 36 19 SW 985,0 46 21 0,0
16.01.2018 14:00:00 4,7 2,5 5,1 3,1 1,7 4,9 22 12 36 19 SW 984,8 30 0 0,0
16.01.2018 13:00:00 4,5 2,4 4,4 2,9 1,4 4,9 19 10 33 18 SSW 985,1 36 1 0,0
16.01.2018 12:00:00 4,3 2,5 3,9 2,4 1,3 4,9 15 8 34 18 SSW 985,5 41 0 0,0
16.01.2018 11:00:00 4,0 2,4 3,3 1,7 1,1 4,9 15 8 30 16 SSW 985,7 33 0 0,0
16.01.2018 10:00:00 4,0 2,6 3,3 1,2 1,0 4,9 15 8 31 17 SSW 985,6 26 1 0,0
16.01.2018 09:00:00 4,0 2,4 3,0 0,8 0,9 4,9 16 9 32 17 SSW 985,4 26 0 0,0
16.01.2018 08:00:00 3,8 2,3 2,3 0,3 0,8 4,9 18 10 33 18 SSW 985,3 31 0 0,0
16.01.2018 07:00:00 3,7 2,1 2,2 0,2 0,8 4,9 22 12 37 20 SW 985,1 57 0 0,0
16.01.2018 06:00:00 4,6 2,7 3,0 0,0 0,7 4,9 26 14 40 22 SW 985,0 48 0 0,0
16.01.2018 05:00:00 4,3 3,1 3,4 -0,1 0,7 4,9 18 10 39 21 SSW 984,9 30 0 0,0
16.01.2018 04:00:00 3,7 2,9 3,0 -0,2 0,7 4,9 27 15 56 31 SSW 985,1 11 0 0,1
16.01.2018 03:00:00 2,8 1,8 2,1 -0,2 0,7 4,9 37 20 70 38 S 985,3 10 0 0,3
16.01.2018 02:00:00 2,3 1,5 1,7 -0,2 0,7 4,9 46 25 69 37 S 985,8 4,5 0 0,5
16.01.2018 01:00:00 2,5 1,3 1,8 -0,2 0,7 5,0 44 24 63 34 SSE 987,5 5 0 0,2
16.01.2018 00:00:00 2,8 1,3 2,0 -0,2 0,7 5,0 42 23 62 33 SSE 989,2 9 0 0,1
15.01.2018 23:00:00 2,6 1,1 1,9 -0,2 0,7 5,0 42 23 64 35 SSE 991,1 4,9 0 0,0
15.01.2018 22:00:00 2,8 0,9 2,0 -0,3 0,7 5,0 39 21 61 33 SSE 993,0 8 0 0,1
15.01.2018 21:00:00 2,6 0,9 1,7 -0,3 0,7 5,0 38 20 61 33 SSE 994,9 8 0 0,0
15.01.2018 20:00:00 2,9 0,4 2,3 -0,3 0,7 5,0 40 21 56 30 SSE 996,6 13 0 0,1
15.01.2018 19:00:00 2,4 0,2 1,5 -0,3 0,7 5,0 40 22 57 31 SSE 998,4 9 0 0,0
15.01.2018 18:00:00 2,4 -0,3 1,8 -0,3 0,7 5,0 36 19 58 32 SSE 1000,2 11 0 0,0
15.01.2018 17:00:00 2,4 -0,6 1,9 -0,3 0,7 5,0 36 19 56 30 SSE 1001,5 14 0 0,0
15.01.2018 16:00:00 2,0 -0,9 1,5 -0,3 0,7 5,0 36 19 54 29 SSE 1003,2 14 0 0,0
15.01.2018 15:00:00 1,9 -1,1 1,6 -0,4 0,7 5,0 36 19 54 29 SSE 1004,7 13 0 0,0
15.01.2018 14:00:00 1,5 -1,5 1,4 -0,4 0,7 5,0 37 20 54 29 SSE 1006,5 13 1 0,0
15.01.2018 13:00:00 1,4 -1,7 1,3 -0,4 0,7 5,0 40 21 57 31 SSE 1007,9 12 1 0,0
15.01.2018 12:00:00 1,0 -2,0 0,9 -0,5 0,7 5,0 40 22 61 33 SSE 1009,7 13 0 0,0
15.01.2018 11:00:00 0,7 -2,3 0,4 -0,6 0,7 5,0 39 21 61 33 SSE 1011,3 12 27 0,0
15.01.2018 10:00:00 0,5 -2,4 0,3 -0,8 0,7 5,1 38 20 55 30 SSE 1012,4 8 32 0,0
15.01.2018 09:00:00 0,1 -2,8 -0,7 -1,0 0,7 5,1 38 21 52 28 SSE 1013,8 11 0 0,0
15.01.2018 08:00:00 -0,2 -3,0 -1,1 -1,1 0,8 5,1 30 16 51 28 SSE 1015,0 11 0 0,0
15.01.2018 07:00:00 0,0 -3,0 -1,0 -1,1 0,8 5,1 32 18 51 27 SSE 1016,1 11 0 0,0
15.01.2018 06:00:00 -0,3 -3,0 -1,3 -1,1 0,8 5,1 25 13 50 27 SSE 1017,3 11 0 0,0
15.01.2018 05:00:00 -0,6 -3,2 -1,6 -1,1 0,9 5,1 28 15 45 24 SSE 1018,6 11 0 0,0
15.01.2018 04:00:00 -0,3 -3,1 -1,3 -1,0 0,9 5,1 31 17 48 26 SSE 1019,6 12 0 0,0
15.01.2018 03:00:00 -0,6 -3,3 -1,5 -1,0 0,9 5,1 30 16 46 25 SSE 1020,4 11 0 0,0
15.01.2018 02:00:00 -0,9 -3,3 -2,0 -0,9 1,0 5,1 27 15 41 22 SSE 1021,6 10 0 0,0
15.01.2018 01:00:00 -1,1 -3,5 -2,1 -0,8 1,0 5,1 25 13 36 20 SSE 1022,9 10 0 0,0
15.01.2018 00:00:00 -1,2 -3,7 -2,2 -0,7 1,1 5,1 24 13 37 20 SSE 1024,0 10 0 0,0
14.01.2018 23:00:00 -1,3 -3,9 -2,2 -0,6 1,1 5,1 26 14 39 21 SSE 1024,8 11 0 0,0
14.01.2018 22:00:00 -1,2 -3,9 -2,1 -0,5 1,1 5,1 21 12 34 19 SSE 1025,7 11 0 0,0
14.01.2018 21:00:00 -1,3 -4,0 -2,2 -0,3 1,2 5,1 21 12 33 18 SE 1026,0 11 0 0,0
14.01.2018 20:00:00 -1,7 -4,1 -2,6 -0,2 1,2 5,1 23 13 37 20 SE 1026,2 10 0 0,0
14.01.2018 19:00:00 -1,7 -4,1 -2,4 -0,1 1,2 5,1 26 14 37 20 SE 1026,5 10 0 0,0
14.01.2018 18:00:00 -1,5 -3,8 -2,3 0,0 1,2 5,1 27 14 37 20 SE 1026,9 10 0 0,0
14.01.2018 17:00:00 -1,1 -3,5 -2,0 0,0 1,3 5,1 24 13 39 21 SE 1027,4 10 0 0,0
14.01.2018 16:00:00 -0,5 -3,6 -1,3 0,1 1,3 5,2 26 14 36 19 ESE 1027,6 12 35 0,0
14.01.2018 15:00:00 0,0 -3,0 -0,7 0,1 1,3 5,2 22 12 32 18 SE 1028,1 11 0 0,0
14.01.2018 14:00:00 0,1 -3,5 0,0 0,1 1,3 5,2 24 13 34 18 SE 1028,3 12 60 0,0
14.01.2018 13:00:00 0,4 -3,2 0,6 0,1 1,3 5,2 24 13 39 21 SE 1028,8 11 56 0,0
14.01.2018 12:00:00 0,1 -3,7 0,3 0,1 1,3 5,2 26 14 40 22 SE 1029,5 12 35 0,0
14.01.2018 11:00:00 0,1 -3,9 0,0 0,1 1,3 5,2 27 15 42 23 SE 1029,9 14 10 0,0
14.01.2018 10:00:00 -0,1 -3,9 -0,4 0,1 1,4 5,2 28 15 43 23 SE 1029,8 12 0 0,0
14.01.2018 09:00:00 0,1 -4,1 -0,3 0,1 1,4 5,2 29 15 41 22 SE 1029,8 15 0 0,0
14.01.2018 08:00:00 0,5 -4,9 0,0 0,1 1,4 5,2 23 12 37 20 SSE 1029,6 19 0 0,0
14.01.2018 07:00:00 0,3 -4,8 -0,1 0,1 1,4 5,2 24 13 40 21 SE 1029,9 18 0 0,0
14.01.2018 06:00:00 0,2 -5,0 -0,2 0,1 1,4 5,2 27 14 40 21 SE 1030,2 18 0 0,0
14.01.2018 05:00:00 0,1 -4,9 -0,2 0,2 1,5 5,2 27 14 41 22 SE 1030,3 16 0 0,0
14.01.2018 04:00:00 0,1 -4,5 -0,2 0,2 1,5 5,2 25 13 37 20 SE 1030,6 14 0 0,0
14.01.2018 03:00:00 0,2 -4,4 -0,1 0,2 1,5 5,2 23 13 36 19 SE 1030,7 15 0 0,0
14.01.2018 02:00:00 0,0 -4,5 -0,3 0,2 1,5 5,2 26 14 39 21 SE 1030,9 17 0 0,0
14.01.2018 01:00:00 0,1 -5,1 -0,2 0,2 1,6 5,2 23 12 36 19 SE 1031,4 22 0 0,0
14.01.2018 00:00:00 0,0 -4,8 -0,3 0,2 1,6 5,2 24 13 39 21 SE 1031,8 21 0 0,0
13.01.2018 23:00:00 0,0 -5,1 -0,3 0,2 1,6 5,2 21 12 46 25 SE 1031,8 22 0 0,0
13.01.2018 22:00:00 -0,3 -5,3 -0,5 0,3 1,7 5,2 28 15 42 23 SE 1032,0 21 0 0,0
13.01.2018 21:00:00 -0,5 -4,8 -0,7 0,3 1,7 5,2 26 14 48 26 SE 1032,2 18 0 0,0
13.01.2018 20:00:00 -0,6 -4,3 -0,8 0,3 1,8 5,2 21 11 39 21 ESE 1032,3 16 0 0,0
13.01.2018 19:00:00 -0,5 -4,7 -0,6 0,3 1,9 5,2 29 15 44 24 SE 1032,2 22 0 0,0
13.01.2018 18:00:00 -0,1 -4,1 -0,4 0,2 2,0 5,2 22 12 40 22 SE 1032,4 25 0 0,0
13.01.2018 17:00:00 0,0 -3,2 -0,3 0,4 2,1 5,2 22 12 35 19 SE 1032,6 24 0 0,0
13.01.2018 16:00:00 0,4 -2,5 0,1 1,0 2,1 5,2 26 14 36 20 SE 1032,2 18 0 0,0
13.01.2018 15:00:00 1,2 -1,6 1,1 1,4 2,1 5,2 23 13 36 19 SE 1032,2 10 0 0,0
13.01.2018 14:00:00 1,3 -1,4 1,3 1,4 2,0 5,2 26 14 36 19 SE 1032,4 9 0 0,0
13.01.2018 13:00:00 1,1 -0,6 1,0 1,1 2,1 5,2 21 11 32 18 SE 1032,7 5 0 0,0
13.01.2018 12:00:00 1,0 -0,8 0,9 1,1 2,1 5,2 24 13 39 21 SE 1032,9 4,9 0 0,0
13.01.2018 11:00:00 1,0 -0,8 0,9 1,1 2,1 5,2 24 13 34 19 SE 1032,9 5 0 0,0
13.01.2018 10:00:00 1,0 -0,6 0,9 1,0 2,1 5,2 23 12 34 18 SE 1032,6 4,7 0 0,0
13.01.2018 09:00:00 1,0 -0,5 0,8 1,0 2,2 5,2 21 12 34 19 SE 1032,3 4,4 0 0,0
13.01.2018 08:00:00 0,9 -0,4 0,8 1,1 2,2 5,2 26 14 37 20 SE 1031,9 4,2 0 0,0
13.01.2018 07:00:00 1,1 -0,1 0,9 1,2 2,2 5,2 24 13 36 20 ESE 1032,2 4,3 0 0,0
13.01.2018 06:00:00 1,2 -0,2 1,1 1,3 2,3 5,2 23 12 34 18 SE 1032,0 4,7 0 0,0
13.01.2018 05:00:00 1,4 0,3 1,2 1,3 2,3 5,2 19 11 31 17 SE 1032,1 4,9 0 0,0
13.01.2018 04:00:00 1,3 0,4 1,0 1,4 2,3 5,2 22 12 35 19 SE 1032,3 4,6 0 0,0
13.01.2018 03:00:00 1,6 0,2 1,4 1,4 2,3 5,2 18 10 29 16 SE 1032,3 7 0 0,0
13.01.2018 02:00:00 1,7 0,2 1,5 1,5 2,4 5,2 19 10 30 16 SE 1032,2 8 0 0,0
13.01.2018 01:00:00 1,8 0,2 1,6 1,5 2,4 5,2 17 9 29 16 ESE 1032,2 9 0 0,0
13.01.2018 00:00:00 2,0 -0,1 1,7 1,5 2,4 5,2 21 11 32 17 ESE 1032,5 11 0 0,0
12.01.2018 23:00:00 2,1 -0,1 1,7 1,6 2,5 5,2 23 12 32 17 ESE 1032,2 10 0 0,0
12.01.2018 22:00:00 2,4 -0,4 1,9 1,6 2,5 5,2 19 10 36 19 ESE 1032,3 14 0 0,0
12.01.2018 21:00:00 2,4 0,1 2,0 1,7 2,5 5,2 21 11 32 18 ESE 1032,1 10 0 0,0
12.01.2018 20:00:00 2,8 0,8 2,4 1,8 2,5 5,2 23 13 34 18 ESE 1031,9 16 0 0,0
12.01.2018 19:00:00 2,8 0,6 2,3 1,8 2,5 5,2 22 12 33 18 ESE 1031,8 21 0 0,0
12.01.2018 18:00:00 3,0 0,6 2,5 1,8 2,5 5,2 22 12 32 18 ESE 1031,6 25 0 0,0
12.01.2018 17:00:00 2,9 0,5 2,4 1,8 2,6 5,2 16 9 28 15 SE 1031,2 26 0 0,0
12.01.2018 16:00:00 2,7 -0,1 2,2 1,8 2,6 5,2 16 9 31 17 ESE 1031,2 34 0 0,0
12.01.2018 15:00:00 2,5 -0,9 2,2 1,9 2,6 5,2 25 14 47 25 ESE 1031,0 33 0 0,0
12.01.2018 14:00:00 2,2 -0,1 2,1 2,1 2,6 5,2 18 10 34 19 ESE 1030,9 21 0 0,0
12.01.2018 13:00:00 2,2 0,1 2,0 2,0 2,6 5,2 23 12 36 19 ESE 1030,9 18 0 0,0
12.01.2018 12:00:00 1,9 0,4 1,7 2,0 2,7 5,2 24 13 42 23 ESE 1030,6 16 0 0,0
12.01.2018 11:00:00 2,1 0,9 1,7 2,1 2,7 5,2 26 14 42 23 E 1030,4 17 0 0,0
12.01.2018 10:00:00 2,2 1,5 1,9 2,1 2,7 5,2 24 13 37 20 E 1029,7 7 0 0,0
12.01.2018 09:00:00 2,4 1,5 2,0 2,1 2,7 5,2 28 15 39 21 E 1029,1 7 0 0,0
12.01.2018 08:00:00 2,5 1,6 2,1 2,2 2,7 5,2 26 14 39 21 E 1028,3 6 0 0,0
12.01.2018 07:00:00 2,7 1,4 2,5 2,2 2,7 5,2 26 14 40 22 E 1027,6 8 0 0,0
12.01.2018 06:00:00 2,7 1,7 2,5 2,3 2,7 5,2 28 15 41 22 E 1027,0 4,3 0 0,0
12.01.2018 05:00:00 2,9 1,7 2,7 2,3 2,8 5,2 24 13 37 20 E 1026,7 4,7 0 0,0
12.01.2018 04:00:00 3,1 1,6 2,8 2,3 2,8 5,2 25 14 35 19 E 1026,2 7 0 0,0
12.01.2018 03:00:00 3,1 1,4 2,6 2,3 2,8 5,3 29 15 39 21 E 1025,7 8 0 0,0
12.01.2018 02:00:00 3,2 1,4 2,7 2,4 2,8 5,3 27 14 37 20 E 1025,1 8 0 0,0
12.01.2018 01:00:00 3,1 1,6 2,7 2,4 2,8 5,3 24 13 37 20 E 1024,8 6 0 0,0
12.01.2018 00:00:00 3,1 1,9 2,7 2,5 2,8 5,3 22 12 35 19 E 1024,2 4,3 0 0,0
11.01.2018 23:00:00 3,2 1,5 2,7 2,6 2,8 5,3 24 13 35 19 E 1023,5 6 0 0,0
11.01.2018 22:00:00 3,2 2,3 2,8 2,7 2,8 5,3 22 12 36 20 E 1023,0 3,4 0 0,0
11.01.2018 21:00:00 3,7 2,3 3,1 2,8 2,8 5,3 26 14 37 20 E 1022,2 5 0 0,0
11.01.2018 20:00:00 3,8 2,8 3,3 2,8 2,8 5,3 24 13 33 18 ENE 1021,6 6 0 0,0
11.01.2018 19:00:00 3,8 3,2 3,3 2,9 2,8 5,3 24 13 31 17 ENE 1021,0 4,3 0 0,0
11.01.2018 18:00:00 3,7 3,1 3,3 2,9 2,8 5,3 24 13 31 17 ENE 1020,6 3,6 0 0,3
11.01.2018 17:00:00 3,7 3,2 3,3 2,9 2,7 5,3 20 11 30 16 NE 1020,2 2,6 0 1,2
11.01.2018 16:00:00 3,6 2,7 3,2 3,1 2,7 5,3 23 12 34 18 ENE 1019,8 4,1 0 1,1
11.01.2018 15:00:00 4,1 3,9 3,8 3,3 2,6 5,3 24 13 31 17 NE 1019,2 3,0 0 1,1
11.01.2018 14:00:00 4,3 4,1 4,1 3,2 2,5 5,3 19 10 26 14 NE 1018,6 3,5 0 0,9
11.01.2018 13:00:00 4,2 4,1 4,1 3,1 2,3 5,3 18 10 23 13 NE 1018,4 2,3 0 0,5
11.01.2018 12:00:00 3,9 3,9 3,9 2,8 2,2 5,3 16 9 21 11 NE 1018,2 1,2 0 0,4
11.01.2018 11:00:00 3,6 3,6 3,6 2,5 2,1 5,4 14 7 18 10 NE 1018,2 0,8 0 0,0
11.01.2018 10:00:00 3,6 3,5 3,5 2,3 2,1 5,4 13 7 17 9 ENE 1017,8 1,6 0 0,0
11.01.2018 09:00:00 3,4 3,4 3,3 2,1 2,0 5,4 12 6 17 9 E 1017,5 1,4 0 0,0
11.01.2018 08:00:00 3,1 3,1 3,0 2,0 1,9 5,4 7 4 15 8 E 1016,8 1,1 0 0,0

tt = Température de l'air
td = dewpoint
tt 5cm = Température de l'air 5cm
tt -5cm = Température de l'air -5cm
tt -20cm = Température de l'air -20cm
tt -100cm = Température de l'air -100cm
ff = Vitesse du vent
fx = gusts
dd = Direction du vent
ppp = reduced air pressure
vv = visibility
sd = Ensoleillement
rr = Quantités de précipitations

stations d'obs. à proximité